EW8974 Weather Reports


Display with metric or nautical units.
time (UTC)temp
F
wind
direction
speed
MPH
gust
MPH
rain 1hr
in
rain 24hr
in
rain mn
in
humidity
%
barometer
mb
20220813143014 87 67 0.0 5.0 0.00 0.00 0.00 62 1017.2
20220813141515 86 150 0.0 7.0 0.00 0.00 0.00 64 1017.4
20220813140016 85 117 0.0 4.0 0.00 0.00 0.00 67 1017.2
20220813134518 84 52 0.0 3.0 0.00 0.00 0.00 69 1017.2
20220813133018 83 239 1.0 5.0 0.00 0.00 0.00 71 1017.1
20220813131513 81 203 0.0 4.0 0.00 0.00 0.00 75 1017.0
20220813130006 79 56 0.0 2.0 0.00 0.00 0.00 79 1016.9
20220813124509 79 117 0.0 1.0 0.00 0.00 0.00 80 1016.7
20220813123015 79 284 0.0 3.0 0.00 0.00 0.00 80 1016.6
20220813121504 78 81 0.0 3.0 0.00 0.00 0.00 81 1016.5
20220813120007 78 71 0.0 1.0 0.00 0.00 0.00 81 1016.4
20220813114608 79 129 0.0 1.0 0.00 0.00 0.00 80 1016.2
20220813113155 79 129 0.0 1.0 0.00 0.00 0.00 79 1016.3
20220813111557 79 108 0.0 0.0 0.00 0.00 0.00 78 1016.2
20220813110056 80 131 0.0 0.0 0.00 0.00 0.00 77 1016.1
20220813104552 80 91 0.0 1.0 0.00 0.00 0.00 77 1016.0
20220813103051 80 110 0.0 1.0 0.00 0.00 0.00 76 1016.0
20220813101549 81 127 0.0 3.0 0.00 0.00 0.00 75 1016.0
20220813100057 81 6 0.0 1.0 0.00 0.00 0.00 75 1016.0
20220813094546 81 78 0.0 3.0 0.00 0.00 0.00 74 1015.8
20220813093044 81 120 1.0 5.0 0.00 0.00 0.00 73 1015.8
20220813091542 82 84 1.0 5.0 0.00 0.00 0.00 73 1015.7
20220813090041 82 84 0.0 4.0 0.00 0.00 0.00 73 1015.6
20220813084549 82 100 0.0 2.0 0.00 0.00 0.00 72 1015.6
20220813083050 82 93 0.0 2.0 0.00 0.00 0.00 71 1015.7
20220813081546 82 63 0.0 1.0 0.00 0.00 0.00 70 1015.5
20220813080035 82 132 0.0 3.0 0.00 0.00 0.00 69 1015.5
20220813074549 83 55 1.0 4.0 0.00 0.00 0.00 69 1015.4
20220813073043 83 118 0.0 3.0 0.00 0.00 0.00 68 1015.4
20220813071529 83 212 0.0 3.0 0.00 0.00 0.00 68 1015.4
20220813070044 84 75 0.0 3.0 0.00 0.00 0.00 67 1015.4
20220813064526 84 130 0.0 4.0 0.00 0.00 0.00 66 1015.5
20220813063044 84 86 0.0 3.0 0.00 0.00 0.00 66 1015.7
20220813061535 85 46 0.0 3.0 0.00 0.00 0.00 65 1015.7
20220813060019 85 104 0.0 5.0 0.00 0.00 0.00 64 1015.6
20220813054517 85 68 0.0 9.0 0.00 0.00 0.00 63 1015.6
20220813053028 86 106 2.0 5.0 0.00 0.00 0.00 61 1015.7
20220813051511 86 91 1.0 8.0 0.00 0.00 0.00 60 1015.6
20220813050008 87 206 2.0 8.0 0.00 0.00 0.00 58 1015.4
20220813044507 87 91 0.0 4.0 0.00 0.00 0.00 57 1015.4
20220813043008 87 140 0.0 5.0 0.00 0.00 0.00 56 1015.3
20220813041505 88 274 0.0 3.0 0.00 0.00 0.00 55 1015.0
20220813040018 88 101 0.0 6.0 0.00 0.00 0.00 54 1015.1
20220813034511 88 243 0.0 3.0 0.00 0.00 0.00 54 1014.9
20220813033004 88 112 0.0 3.0 0.00 0.00 0.00 54 1015.0
20220813031503 89 146 0.0 2.0 0.00 0.00 0.00 54 1014.6
20220813030009 89 70 0.0 2.0 0.00 0.00 0.00 53 1014.6
20220813024505 89 72 0.0 2.0 0.00 0.00 0.00 52 1014.3
20220813023009 90 118 0.0 2.0 0.00 0.00 0.00 51 1014.1
20220813021613 90 91 1.0 6.0 0.00 0.00 0.00 50 1014.1
20220813020116 91 80 0.0 4.0 0.00 0.00 0.00 49 1013.9
20220813014633 91 93 0.0 3.0 0.00 0.00 0.00 48 1013.8
20220813013135 92 92 0.0 4.0 0.00 0.00 0.00 47 1013.8
20220813011610 92 72 0.0 2.0 0.00 0.00 0.00 46 1013.7
20220813010058 93 103 0.0 1.0 0.00 0.00 0.00 45 1013.5
20220813004556 94 284 0.0 2.0 0.00 0.00 0.00 44 1013.4
20220813003054 96 75 0.0 3.0 0.00 0.00 0.00 43 1013.2
20220813001607 96 98 0.0 1.0 0.00 0.00 0.00 43 1013.3
20220813000123 96 82 0.0 6.0 0.00 0.00 0.00 42 1013.1
20220812234553 98 66 0.0 4.0 0.00 0.00 0.00 41 1013.0
20220812233106 98 101 0.0 5.0 0.00 0.00 0.00 40 1013.1
20220812231552 98 78 0.0 5.0 0.00 0.00 0.00 41 1013.2
20220812230047 97 53 1.0 4.0 0.00 0.00 0.00 42 1013.4
20220812224600 99 87 0.0 5.0 0.00 0.00 0.00 41 1013.4
20220812223106 97 119 2.0 6.0 0.00 0.00 0.00 43 1013.5
20220812221544 96 91 0.0 4.0 0.00 0.00 0.00 43 1013.7
20220812220047 99 264 0.0 5.0 0.00 0.00 0.00 40 1013.7
20220812214542 99 312 1.0 4.0 0.00 0.00 0.00 42 1013.7
20220812213040 98 70 1.0 7.0 0.00 0.00 0.00 42 1014.1
20220812211538 98 248 1.0 3.0 0.00 0.00 0.00 44 1014.2
20220812210049 99 130 1.0 8.0 0.00 0.00 0.00 42 1014.4
20220812204539 98 136 1.0 6.0 0.00 0.00 0.00 42 1014.5
20220812203035 97 110 2.0 6.0 0.00 0.00 0.00 44 1014.9
20220812201526 96 46 0.0 5.0 0.00 0.00 0.00 47 1015.1
20220812200023 95 91 0.0 5.0 0.00 0.00 0.00 48 1015.2
20220812194523 95 68 0.0 2.0 0.00 0.00 0.00 48 1015.5
20220812193019 94 77 1.0 4.0 0.00 0.00 0.00 48 1015.5
20220812191536 94 82 0.0 5.0 0.00 0.00 0.00 49 1015.7
20220812190017 95 105 1.0 4.0 0.00 0.00 0.00 47 1015.7
20220812184542 94 192 1.0 4.0 0.00 0.00 0.00 50 1015.8
20220812183016 94 105 1.0 4.0 0.00 0.00 0.00 49 1016.0
20220812181515 94 68 1.0 8.0 0.00 0.00 0.00 49 1016.1
20220812180017 92 80 0.0 4.0 0.00 0.00 0.00 53 1016.2
20220812174541 93 49 0.0 4.0 0.00 0.00 0.00 52 1016.4
20220812173013 95 113 1.0 4.0 0.00 0.00 0.00 53 1016.5
20220812171526 93 53 1.0 8.0 0.00 0.00 0.00 52 1016.7
20220812170008 93 93 0.0 4.0 0.00 0.00 0.00 53 1016.8
20220812164506 92 225 0.0 4.0 0.00 0.00 0.00 58 1016.8
20220812163005 91 118 2.0 6.0 0.00 0.00 0.00 56 1017.1
20220812161504 92 81 1.0 4.0 0.00 0.00 0.00 57 1017.3
20220812160100 90 99 1.0 4.0 0.00 0.00 0.00 59 1017.3
20220812154610 88 352 0.0 2.0 0.00 0.00 0.00 63 1017.3
20220812153107 89 314 0.0 3.0 0.00 0.00 0.00 62 1017.3
20220812151626 88 325 0.0 3.0 0.00 0.00 0.00 66 1017.2
20220812150050 87 77 0.0 4.0 0.00 0.00 0.00 67 1017.2
20220812144552 86 69 0.0 3.0 0.00 0.00 0.00 69 1017.2